Flag for Brazil Weather past 2 weeks in Campo Grande, Mato Grosso Do Sul, Brazil

Now
77 °F

Clear.


Feels Like: 79 °F
Forecast: N/A
Wind: 6 mph from East

Location: Campo Grande Aeroporto

Current Time: Apr 27, 2015 at 7:15:47 PM

Latest Report: Apr 27, 2015 at 6:00 PM


Visibility: 10 mi

Pressure: 29.95 "Hg

Humidity: 54%

Dew point: 59 °F

Location of Campo GrandeLocation

Historic Weather in Campo Grande — Graph

°F

Campo Grande temperature yesterday

Maximum temperature yesterday: 82 °F (at 12:00 PM)
Minimum temperature yesterday: 70 °F (at 5:00 AM)
Average temperature yesterday: 75 °F

Past Weeks' High & Low Weather Summary

 TemperatureHumidityPressure
High88 °F (Apr 13, 2:00 PM)100% (Apr 17, 9:00 PM)30.12 "Hg (Apr 17, 9:00 PM)
Low64 °F (Apr 19, 5:00 AM)35% (Apr 27, 2:00 PM)29.86 "Hg (Apr 19, 3:00 PM)
Average75 °F79%29.99 "Hg
* Reported Apr 12 6:00 PM — Apr 27 6:00 PM, Campo Grande, Weather by CustomWeather, © 2015

Note: Actual official high and low records may vary slightly from our data, if they occured in-between our weather recording intervals... More about our weather records

Advertising

Campo Grande weather history for previous 24 hours

 ConditionsComfort  
Time TempWeatherWind HumidityBarometerVisibility
6:00 PM
Mon, Apr 27
77 °FClear.6 mph54%29.95 "Hg10 mi
5:00 PM81 °FClear.7 mph42%29.95 "Hg10 mi
4:00 PM84 °FSunny.7 mph40%29.95 "Hg10 mi
3:00 PM86 °FSunny.3 mph38%29.95 "Hg10 mi
2:00 PM86 °FSunny.3 mph35%29.95 "Hg10 mi
1:00 PM84 °FPassing clouds.7 mph37%29.98 "HgN/A
12:00 PM81 °FPassing clouds.9 mph48%30.01 "HgN/A
11:00 AM79 °FPassing clouds.9 mph51%30.04 "HgN/A
10:00 AM77 °FPassing clouds.14 mph57%30.07 "HgN/A
9:00 AM75 °FPassing clouds.16 mph57%30.07 "HgN/A
8:00 AM72 °FPassing clouds.17 mph61%30.04 "HgN/A
7:00 AM68 °FPassing clouds.9 mph69%30.04 "HgN/A
6:00 AM66 °FSunny.7 mph73%30.04 "Hg10 mi
5:00 AM68 °FSunny.9 mph69%30.01 "Hg10 mi
4:00 AM68 °FClear.12 mph69%30.01 "Hg10 mi
3:00 AM68 °FClear.12 mph69%30.01 "Hg10 mi
2:00 AM70 °FClear.13 mph64%30.01 "Hg10 mi
1:00 AM70 °FClear.9 mph73%30.04 "Hg10 mi
12:00 AM70 °FClear.10 mph73%30.04 "Hg10 mi
11:00 PM
Sun, Apr 26
72 °FClear.10 mph69%30.04 "Hg10 mi
10:00 PM72 °FClear.10 mph73%30.04 "Hg10 mi
9:00 PM73 °FClear.10 mph74%30.04 "Hg10 mi
8:00 PM75 °FClear.9 mph69%30.04 "Hg10 mi
7:00 PM75 °FClear.8 mph69%30.01 "Hg10 mi
Weather by CustomWeather, © 2015

See weather overviewHow to use our weather pages